"startDT [UTC]","vpos","CH4 [ppm]","stdev(CH4) [ppm]","CO2 [ppm]","stdev(CO2) [ppm]","H2O [ppm]","stdev(H2O)","p_LGR [torr]","T_LGR [C]","mt1_LGR [us]","mt2_LGR [us]","T_ECpre [C]","T_EC1 [C]","T_EC2 [C]","p_inlet [hPa]","p_in [hPa]","p_out [hPa]","T_inlet [C]","RH_inlet [%]","dwpt_inlet [C]","T_vent [C]","RH_vent [%]","dwpt_vent [C]","flow_vent [l min-1]","flow_inlet [l min-1]","dwpt_sample [C]","T_room [C]"
2012-08-04 00:00:00,0.0,1.8987,0.0011,385.15,0.40,50.3,35.6,138.05,31.96,24.65,36.39,0.95,-26.22,18.27,-47,562,-922,27.0,23.0,4.1,26.9,1.4,-30.5,5.73,2.40,-27.4,30.6
2012-08-04 00:01:00,0.0,1.8993,0.0012,385.05,0.43,54.4,35.9,138.05,31.96,24.65,36.40,0.94,-26.22,18.31,-47,562,-922,27.0,23.1,4.2,26.9,1.4,-30.5,5.73,2.37,-27.4,30.5
2012-08-04 00:02:00,0.0,1.8991,0.0013,384.95,0.45,57.7,36.7,138.05,31.96,24.65,36.40,0.94,-26.22,18.35,-47,562,-922,27.0,23.1,4.2,26.9,1.4,-30.5,5.73,2.37,-27.4,30.6
2012-08-04 00:03:00,0.0,1.8990,0.0013,385.17,0.43,42.1,33.0,138.05,31.97,24.65,36.40,0.94,-26.21,18.39,-47,562,-922,27.0,23.1,4.1,26.9,1.4,-30.5,5.73,2.39,-27.4,30.5
2012-08-04 00:04:00,0.0,1.8990,0.0010,385.15,0.44,45.6,31.3,138.05,31.97,24.65,36.40,0.93,-26.22,18.41,-47,562,-922,27.0,23.1,4.1,26.9,1.4,-30.5,5.73,2.38,-27.4,30.5
2012-08-04 00:05:00,0.0,1.8987,0.0010,385.11,0.41,45.7,37.9,138.05,31.97,24.65,36.39,0.92,-26.22,18.45,-47,562,-922,27.0,23.0,4.1,26.9,1.4,-30.5,5.73,2.36,-27.4,30.6
2012-08-04 00:06:00,0.0,1.8995,0.0012,384.94,0.40,53.8,39.6,138.05,31.97,24.65,36.40,0.93,-26.22,18.48,-47,562,-922,27.0,23.0,4.1,26.9,1.4,-30.5,5.73,2.38,-27.4,30.6
2012-08-04 00:07:00,0.0,1.8992,0.0012,384.97,0.40,47.6,34.7,138.05,31.96,24.65,36.41,0.92,-26.22,18.50,-47,562,-922,27.0,23.0,4.1,26.9,1.4,-30.5,5.73,2.39,-27.4,30.6
2012-08-04 00:08:00,0.0,1.8996,0.0012,385.08,0.47,50.2,37.9,138.05,31.96,24.65,36.40,0.93,-26.22,18.53,-47,562,-922,27.0,22.9,4.0,26.9,1.4,-30.5,5.73,2.36,-27.4,30.5
2012-08-04 00:09:00,0.0,1.8998,0.0010,385.14,0.40,46.3,31.5,138.05,31.96,24.65,36.39,0.91,-26.22,18.56,-47,562,-922,27.0,22.8,4.0,26.9,1.4,-30.5,5.73,2.37,-27.4,30.6
2012-08-04 00:10:00,0.0,1.9011,0.0012,384.99,0.43,44.1,29.2,138.05,31.96,24.65,36.40,0.93,-26.21,18.59,-47,562,-922,27.0,23.0,4.1,26.9,1.4,-30.6,5.73,2.39,-27.4,30.5
2012-08-04 00:11:00,0.0,1.9016,0.0011,385.20,0.44,47.5,34.5,138.05,31.96,24.65,36.40,0.93,-26.21,18.61,-47,562,-922,27.0,23.0,4.1,26.9,1.4,-30.5,5.73,2.38,-27.4,30.6
2012-08-04 00:12:00,0.0,1.9013,0.0013,385.07,0.47,43.5,33.9,138.05,31.95,24.65,36.40,0.93,-26.21,18.63,-47,562,-922,27.0,23.2,4.2,26.9,1.4,-30.5,5.73,2.36,-27.4,30.6
2012-08-04 00:13:00,0.0,1.9008,0.0013,385.07,0.40,49.4,38.7,138.05,31.96,24.65,36.40,0.93,-26.21,18.66,-47,562,-922,27.0,23.2,4.2,26.9,1.4,-30.5,5.73,2.38,-27.4,30.6
2012-08-04 00:14:00,0.0,1.9007,0.0013,385.22,0.47,49.3,38.2,138.05,31.96,24.65,36.40,0.92,-26.21,18.68,-47,562,-922,27.0,23.1,4.2,26.9,1.4,-30.5,5.73,2.39,-27.4,30.6
2012-08-04 00:15:00,0.0,1.9014,0.0012,385.18,0.43,54.3,42.9,138.05,31.96,24.65,36.39,0.95,-26.21,18.70,-47,562,-922,27.0,23.1,4.1,26.9,1.4,-30.6,5.73,2.36,-27.4,30.6
2012-08-04 00:16:00,0.0,1.9021,0.0012,385.15,0.43,48.5,31.2,138.05,31.96,24.65,36.39,0.95,-26.21,18.72,-47,562,-922,27.0,23.1,4.2,26.9,1.4,-30.6,5.73,2.37,-27.4,30.6
2012-08-04 00:17:00,0.0,1.9020,0.0014,385.15,0.43,44.0,38.9,138.05,31.95,24.65,36.40,0.94,-26.21,18.73,-47,562,-922,27.0,23.3,4.2,26.9,1.4,-30.5,5.73,2.40,-27.4,30.7
2012-08-04 00:18:00,0.0,1.9020,0.0010,385.25,0.48,50.8,36.6,138.05,31.95,24.65,36.39,0.94,-26.21,18.75,-47,562,-922,27.0,23.4,4.3,26.9,1.4,-30.5,5.73,2.37,-27.4,30.7
2012-08-04 00:19:00,0.0,1.9026,0.0012,385.21,0.41,41.0,34.2,138.05,31.95,24.65,36.39,0.94,-26.21,18.77,-47,562,-922,27.0,23.4,4.3,26.9,1.4,-30.6,5.73,2.36,-27.4,30.7
2012-08-04 00:20:00,0.0,1.9021,0.0012,385.16,0.42,52.1,37.4,138.05,31.95,24.65,36.39,0.95,-26.21,18.79,-47,562,-922,27.0,23.4,4.3,26.9,1.4,-30.5,5.73,2.39,-27.4,30.7
2012-08-04 00:21:00,0.0,1.9029,0.0013,385.09,0.47,43.6,32.1,138.05,31.95,24.65,36.40,0.95,-26.20,18.81,-47,562,-922,27.0,23.5,4.4,26.9,1.4,-30.5,5.73,2.37,-27.4,30.7
2012-08-04 00:22:00,0.0,1.9031,0.0013,385.10,0.38,39.7,33.1,138.05,31.95,24.65,36.39,0.94,-26.20,18.82,-47,562,-922,27.0,23.6,4.4,26.9,1.4,-30.5,5.73,2.36,-27.4,30.8
2012-08-04 00:23:00,0.0,1.9028,0.0012,385.13,0.45,46.0,32.3,138.05,31.95,24.65,36.40,0.94,-26.20,18.84,-47,562,-922,27.0,23.5,4.4,26.9,1.4,-30.5,5.73,2.39,-27.4,30.7
2012-08-04 00:24:00,0.0,1.9025,0.0012,385.09,0.41,51.7,30.2,138.05,31.95,24.65,36.40,0.95,-26.20,18.86,-47,561,-922,27.0,23.4,4.3,26.9,1.4,-30.5,5.73,2.38,-27.4,30.7
2012-08-04 00:25:00,0.0,1.9032,0.0013,385.06,0.43,42.9,34.9,138.05,31.95,24.65,36.39,1.02,-26.20,18.42,-47,562,-922,27.0,23.3,4.3,26.9,1.4,-30.6,5.73,2.36,-27.4,30.8
2012-08-04 00:26:00,0.0,1.9020,0.0014,385.11,0.42,51.8,39.5,138.05,31.95,24.65,36.41,1.18,-26.19,16.54,-47,562,-922,27.0,23.3,4.2,26.9,1.4,-30.5,5.73,2.38,-27.4,30.8
2012-08-04 00:27:00,0.0,1.9024,0.0011,385.11,0.49,44.3,33.9,138.05,31.95,24.65,36.40,1.10,-26.21,14.20,-47,562,-922,27.0,23.1,4.2,26.9,1.3,-30.7,5.73,2.39,-27.4,30.7
2012-08-04 00:28:00,0.0,1.9027,0.0014,384.92,0.51,43.4,31.5,138.05,31.95,24.65,36.41,1.01,-26.27,11.80,-47,562,-922,27.0,23.1,4.1,26.9,1.3,-30.7,5.73,2.36,-27.4,30.6
2012-08-04 00:29:00,0.0,1.9023,0.0011,384.99,0.42,47.9,38.0,138.05,31.95,24.65,36.39,1.02,-26.32,9.45,-47,562,-922,27.0,23.2,4.2,26.9,1.3,-30.7,5.73,2.36,-27.4,30.6
2012-08-04 00:30:00,0.0,1.9020,0.0012,385.01,0.46,54.5,36.4,138.05,31.95,24.65,36.39,1.02,-26.35,7.20,-47,562,-922,27.0,23.2,4.2,26.9,1.3,-30.8,5.73,2.38,-27.4,30.5
2012-08-04 00:31:00,0.0,1.9031,0.0011,384.95,0.49,49.1,37.1,138.05,31.95,24.64,36.39,1.10,-26.36,5.06,-47,562,-922,26.9,23.3,4.2,26.9,1.3,-30.7,5.73,2.38,-27.5,30.6
2012-08-04 00:32:00,0.0,1.9021,0.0011,385.11,0.47,42.7,35.1,138.05,31.95,24.65,36.40,1.02,-26.36,3.02,-47,562,-922,26.9,23.3,4.2,26.8,1.3,-30.8,5.73,2.37,-27.5,30.5
2012-08-04 00:33:00,0.0,1.9021,0.0013,385.10,0.40,39.5,34.9,138.05,31.94,24.65,36.38,1.02,-26.38,1.09,-47,562,-922,26.9,23.4,4.2,26.8,1.3,-30.8,5.73,2.36,-27.5,30.4
2012-08-04 00:34:00,0.0,1.9016,0.0011,385.13,0.47,42.3,35.7,138.05,31.94,24.65,36.39,1.10,-26.38,-0.65,-47,562,-922,26.9,23.4,4.2,26.8,1.3,-30.7,5.73,2.37,-27.5,30.3
2012-08-04 00:35:00,0.0,1.9020,0.0014,385.04,0.47,34.4,31.7,138.05,31.94,24.65,36.39,1.01,-26.39,-2.26,-47,561,-922,26.9,23.4,4.3,26.8,1.3,-30.8,5.73,2.38,-27.5,30.3
2012-08-04 00:36:00,0.0,1.9013,0.0011,384.84,0.44,34.4,29.8,138.05,31.93,24.65,36.41,1.02,-26.39,-3.76,-47,562,-922,26.9,23.5,4.3,26.8,1.3,-30.8,5.73,2.39,-27.6,30.3
2012-08-04 00:37:00,0.0,1.9017,0.0013,384.96,0.44,31.6,32.9,138.05,31.93,24.65,36.40,1.09,-26.40,-5.13,-47,561,-922,26.9,23.4,4.2,26.8,1.3,-30.8,5.73,2.38,-27.6,30.3
2012-08-04 00:38:00,0.0,1.9016,0.0010,385.12,0.51,37.9,32.0,138.05,31.92,24.65,36.39,1.00,-26.40,-6.40,-47,561,-922,26.9,23.4,4.3,26.8,1.3,-30.8,5.73,2.36,-27.6,30.3
2012-08-04 00:39:00,0.0,1.9015,0.0012,385.04,0.42,36.3,28.7,138.06,31.92,24.65,36.39,0.99,-26.41,-7.63,-47,561,-922,26.8,23.4,4.2,26.8,1.3,-30.8,5.73,2.36,-27.6,30.3
2012-08-04 00:40:00,0.0,1.9013,0.0012,384.86,0.40,35.3,29.8,138.06,31.92,24.65,36.40,1.08,-26.41,-8.93,-47,561,-922,26.8,23.4,4.2,26.8,1.3,-30.8,5.73,2.37,-27.6,30.2
2012-08-04 00:41:00,0.0,1.9011,0.0013,385.01,0.41,39.7,32.3,138.06,31.91,24.65,36.39,1.07,-26.41,-10.02,-47,561,-922,26.8,23.4,4.2,26.7,1.3,-30.9,5.73,2.39,-27.6,30.2
2012-08-04 00:42:00,0.0,1.9013,0.0015,385.08,0.45,34.5,34.4,138.06,31.91,24.65,36.39,0.97,-26.41,-11.14,-47,561,-922,26.8,23.6,4.3,26.7,1.3,-30.9,5.73,2.38,-27.6,30.2
2012-08-04 00:43:00,0.0,1.9000,0.0012,385.03,0.44,32.5,32.5,138.06,31.90,24.65,36.39,1.02,-26.42,-12.20,-47,561,-922,26.8,23.4,4.2,26.7,1.3,-30.8,5.73,2.36,-27.6,30.2
2012-08-04 00:44:00,0.0,1.8999,0.0010,384.98,0.47,35.5,32.0,138.06,31.90,24.65,36.40,1.08,-26.43,-13.26,-47,561,-921,26.8,23.3,4.1,26.7,1.3,-30.8,5.73,2.36,-27.6,30.1
2012-08-04 00:45:00,0.0,1.8998,0.0013,384.98,0.43,40.0,33.9,138.06,31.89,24.65,36.40,1.03,-26.43,-14.15,-47,561,-921,26.8,23.4,4.2,26.7,1.3,-30.8,5.73,2.37,-27.6,30.2
2012-08-04 00:46:00,0.0,1.9003,0.0012,385.05,0.52,38.7,37.0,138.06,31.89,24.65,36.40,0.97,-26.44,-15.02,-47,561,-921,26.8,23.4,4.2,26.7,1.3,-30.9,5.73,2.39,-27.6,30.2
2012-08-04 00:47:00,0.0,1.8998,0.0011,384.94,0.49,34.1,32.6,138.06,31.88,24.65,36.40,1.02,-26.44,-15.89,-47,561,-921,26.8,23.4,4.2,26.7,1.3,-30.8,5.73,2.38,-27.6,30.2
2012-08-04 00:48:00,0.0,1.8990,0.0011,384.95,0.45,31.1,31.3,138.06,31.88,24.65,36.40,1.09,-26.45,-16.68,-47,561,-921,26.8,23.2,4.1,26.7,1.3,-30.8,5.73,2.37,-27.7,30.3
2012-08-04 00:49:00,0.0,1.8986,0.0012,385.02,0.43,40.1,33.8,138.06,31.87,24.65,36.40,1.01,-26.46,-17.36,-47,561,-921,26.8,23.3,4.1,26.7,1.3,-30.8,5.73,2.36,-27.6,30.2
2012-08-04 00:50:00,0.0,1.8984,0.0013,384.86,0.51,35.3,32.3,138.06,31.87,24.65,36.40,0.96,-26.47,-18.09,-47,561,-921,26.8,23.3,4.1,26.7,1.3,-30.8,5.73,2.37,-27.6,30.2
2012-08-04 00:51:00,0.0,1.8984,0.0010,384.98,0.46,36.9,37.2,138.06,31.86,24.65,36.39,1.02,-26.48,-18.78,-47,561,-922,26.8,23.2,4.0,26.7,1.3,-30.8,5.73,2.38,-27.7,30.2
2012-08-04 00:52:00,0.0,1.8982,0.0012,384.87,0.50,32.7,28.7,138.06,31.86,24.65,36.39,1.08,-26.48,-19.44,-47,561,-922,26.8,23.2,4.0,26.7,1.3,-30.9,5.73,2.38,-27.7,30.1
2012-08-04 00:53:00,0.0,1.8982,0.0012,384.80,0.47,35.8,33.0,138.06,31.85,24.65,36.40,1.03,-26.49,-20.05,-47,561,-921,26.7,23.4,4.1,26.7,1.3,-30.9,5.73,2.37,-27.7,30.1
2012-08-04 00:54:00,0.0,1.8980,0.0011,384.88,0.41,28.1,23.9,138.06,31.85,24.65,36.40,0.97,-26.50,-20.63,-47,561,-921,26.7,23.3,4.1,26.6,1.3,-30.8,5.73,2.36,-27.7,30.2
2012-08-04 00:55:00,0.0,1.8978,0.0012,384.86,0.45,30.5,30.1,138.06,31.85,24.65,36.41,0.98,-26.51,-21.17,-47,561,-922,26.7,23.1,4.0,26.6,1.3,-30.9,5.73,2.37,-27.7,30.2
2012-08-04 00:56:00,0.0,1.8968,0.0011,384.90,0.44,30.2,30.5,138.06,31.85,24.65,36.40,1.06,-26.52,-21.67,-47,561,-922,26.7,23.0,3.9,26.6,1.3,-30.9,5.73,2.38,-27.7,30.1
2012-08-04 00:57:00,0.0,1.8968,0.0013,384.91,0.39,32.5,33.5,138.06,31.84,24.65,36.40,1.06,-26.54,-22.14,-47,561,-921,26.7,23.0,3.8,26.6,1.3,-31.0,5.73,2.38,-27.7,30.1
2012-08-04 00:58:00,0.0,1.8968,0.0012,384.85,0.43,36.0,37.7,138.06,31.84,24.65,36.40,0.98,-26.54,-22.59,-47,561,-921,26.7,23.1,3.9,26.6,1.3,-31.1,5.73,2.37,-27.7,30.1
2012-08-04 00:59:00,0.0,1.8964,0.0009,384.76,0.47,33.4,30.4,138.06,31.83,24.65,36.40,0.98,-26.55,-23.01,-47,561,-922,26.7,23.0,3.9,26.6,1.3,-31.1,5.73,2.36,-27.7,30.1
2012-08-04 01:00:00,0.0,1.8965,0.0013,384.88,0.44,39.6,33.8,138.06,31.83,24.65,36.39,1.03,-26.56,-23.40,-47,561,-921,26.7,23.0,3.8,26.6,1.3,-31.1,5.73,2.37,-27.7,30.1
2012-08-04 01:01:00,0.0,1.8969,0.0012,384.85,0.46,34.9,37.3,138.06,31.83,24.65,36.40,1.06,-26.58,-23.77,-47,561,-921,26.7,22.9,3.8,26.6,1.3,-31.1,5.73,2.38,-27.7,30.1
2012-08-04 01:02:00,0.0,1.8976,0.0010,384.86,0.47,31.7,31.9,138.06,31.82,24.64,36.39,1.01,-26.58,-24.12,-47,561,-921,26.7,23.1,3.9,26.6,1.3,-31.1,5.73,2.38,-27.7,30.1
2012-08-04 01:03:00,0.0,1.8968,0.0011,384.91,0.45,37.7,30.0,138.06,31.82,24.65,36.40,0.96,-26.59,-24.45,-47,561,-921,26.7,22.9,3.8,26.6,1.3,-31.1,5.73,2.38,-27.7,30.0
2012-08-04 01:04:00,0.0,1.8966,0.0014,384.87,0.38,34.5,30.6,138.06,31.81,24.65,36.40,0.99,-26.61,-24.76,-47,561,-921,26.7,22.8,3.7,26.6,1.3,-31.1,5.73,2.36,-27.7,30.0
2012-08-04 01:05:00,0.0,1.8966,0.0012,384.99,0.39,38.8,32.9,138.06,31.81,24.65,36.40,1.04,-26.61,-25.05,-47,561,-921,26.7,22.6,3.6,26.6,1.3,-31.1,5.73,2.36,-27.7,30.0
2012-08-04 01:06:00,0.0,1.8969,0.0012,384.88,0.49,33.9,26.5,138.06,31.81,24.65,36.40,1.07,-26.62,-25.33,-47,561,-921,26.7,22.7,3.7,26.6,1.3,-31.1,5.73,2.37,-27.7,30.1
2012-08-04 01:07:00,0.0,1.8972,0.0012,385.07,0.53,34.6,32.1,138.06,31.80,24.65,36.40,0.99,-26.63,-25.60,-47,561,-921,26.7,22.6,3.5,26.6,1.3,-31.1,5.73,2.38,-27.7,30.1
2012-08-04 01:08:00,0.0,1.8976,0.0010,384.93,0.41,35.0,34.8,138.06,31.80,24.65,36.39,0.96,-26.64,-25.85,-47,561,-921,26.7,22.8,3.7,26.6,1.3,-31.1,5.73,2.38,-27.7,30.1
2012-08-04 01:09:00,0.0,1.8972,0.0014,384.91,0.50,30.3,30.5,138.06,31.80,24.66,36.40,1.00,-26.65,-26.07,-47,561,-921,26.7,22.9,3.8,26.6,1.3,-31.1,5.73,2.36,-27.7,30.1
2012-08-04 01:10:00,0.0,1.8973,0.0011,385.00,0.40,32.5,34.2,138.06,31.80,24.65,36.39,1.03,-26.66,-26.28,-47,561,-921,26.7,22.9,3.8,26.6,1.3,-31.1,5.73,2.36,-27.7,30.1
2012-08-04 01:11:00,0.0,1.8976,0.0013,385.00,0.45,28.3,30.1,138.06,31.80,24.65,36.40,1.06,-26.67,-26.47,-47,561,-921,26.7,23.0,3.8,26.6,1.3,-31.1,5.73,2.38,-27.7,30.0
2012-08-04 01:12:00,0.0,1.8976,0.0013,384.85,0.45,33.8,32.5,138.06,31.79,24.65,36.40,0.98,-26.68,-26.65,-47,561,-921,26.7,23.1,3.9,26.6,1.3,-31.2,5.73,2.39,-27.7,30.0
2012-08-04 01:13:00,0.0,1.8981,0.0011,384.99,0.39,29.7,28.6,138.06,31.79,24.65,36.40,1.00,-26.69,-26.53,-47,561,-921,26.7,23.1,3.9,26.6,1.3,-31.1,5.73,2.37,-27.7,30.0
2012-08-04 01:14:00,0.0,1.8978,0.0012,385.01,0.44,36.0,33.9,138.06,31.79,24.65,36.39,0.97,-26.70,-26.41,-47,561,-921,26.7,23.1,3.9,26.6,1.3,-31.1,5.73,2.36,-27.7,30.1
2012-08-04 01:15:00,0.0,1.8975,0.0012,384.89,0.43,41.0,31.2,138.06,31.79,24.65,36.40,1.00,-26.71,-26.54,-47,561,-921,26.7,23.1,3.9,26.6,1.3,-31.2,5.73,2.36,-27.7,30.1
2012-08-04 01:16:00,0.0,1.8982,0.0014,384.97,0.41,31.8,31.3,138.06,31.78,24.65,36.39,1.06,-26.71,-26.69,-47,561,-921,26.7,23.2,3.9,26.6,1.3,-31.2,5.73,2.38,-27.6,30.1
2012-08-04 01:17:00,0.0,1.8975,0.0013,385.10,0.39,23.4,26.8,138.06,31.78,24.65,36.38,0.95,-26.72,-26.53,-47,561,-921,26.7,23.2,4.0,26.6,1.3,-31.1,5.73,2.39,-27.7,30.1
2012-08-04 01:18:00,0.0,1.8975,0.0013,384.84,0.43,35.4,32.8,138.06,31.78,24.65,36.40,1.02,-26.73,-26.45,-47,560,-921,26.7,23.2,3.9,26.6,1.3,-31.1,5.73,2.37,-27.7,30.1
2012-08-04 01:19:00,0.0,1.8977,0.0013,384.96,0.47,41.5,34.5,138.06,31.77,24.65,36.40,0.97,-26.73,-26.58,-47,561,-921,26.7,23.3,4.0,26.6,1.3,-31.3,5.73,2.36,-27.6,30.2
2012-08-04 01:20:00,0.0,1.8983,0.0013,384.97,0.46,40.0,39.5,138.06,31.77,24.65,36.39,0.98,-26.74,-26.73,-47,561,-921,26.7,23.3,4.0,26.6,1.3,-31.3,5.73,2.37,-27.6,30.1
2012-08-04 01:21:00,0.0,1.8979,0.0012,384.93,0.44,34.9,33.8,138.06,31.77,24.65,36.40,1.01,-26.75,-26.53,-47,561,-921,26.7,23.3,4.0,26.6,1.3,-31.4,5.73,2.38,-27.7,30.1
2012-08-04 01:22:00,0.0,1.8987,0.0012,384.97,0.42,30.1,28.0,138.06,31.77,24.65,36.40,1.03,-26.75,-26.48,-47,561,-921,26.7,23.0,3.8,26.6,1.3,-31.4,5.73,2.38,-27.6,30.2
2012-08-04 01:23:00,0.0,1.8984,0.0012,384.99,0.44,28.4,27.9,138.06,31.77,24.65,36.39,1.07,-26.76,-26.61,-47,560,-921,26.7,23.1,3.9,26.6,1.3,-31.4,5.73,2.35,-27.6,30.1
2012-08-04 01:24:00,0.0,1.8981,0.0013,384.95,0.41,40.6,37.0,138.06,31.76,24.65,36.40,0.91,-26.42,-26.78,-47,560,-921,26.7,23.1,3.9,26.6,1.3,-31.3,5.73,2.37,-27.6,30.2
2012-08-04 01:25:00,0.0,1.8973,0.0013,385.04,0.35,41.9,29.1,138.06,31.76,24.65,36.40,0.86,-24.85,-26.91,-47,560,-921,26.7,23.0,3.8,26.6,1.3,-30.8,5.73,2.38,-27.7,30.2
2012-08-04 01:26:00,0.0,1.8977,0.0015,384.94,0.44,31.9,30.0,138.06,31.76,24.65,36.40,0.91,-22.91,-26.99,-47,560,-921,26.7,23.0,3.8,26.6,1.5,-29.7,5.73,2.37,-27.6,30.2
2012-08-04 01:27:00,0.0,1.8972,0.0013,384.83,0.47,40.4,36.2,138.06,31.75,24.65,36.40,0.91,-20.98,-27.02,-47,560,-921,26.7,22.9,3.8,26.6,1.6,-29.0,5.73,2.35,-27.7,30.2
2012-08-04 01:28:00,0.0,1.8974,0.0010,384.92,0.46,38.4,37.3,138.06,31.75,24.65,36.40,0.93,-19.11,-27.03,-47,561,-921,26.6,22.9,3.7,26.6,1.6,-28.8,5.73,2.37,-27.7,30.3
2012-08-04 01:29:00,0.0,1.8975,0.0014,384.96,0.43,40.9,40.0,138.06,31.75,24.65,36.39,0.95,-17.33,-27.01,-47,561,-921,26.7,22.9,3.7,26.6,1.7,-28.6,5.73,2.38,-27.7,30.4
2012-08-04 01:30:00,0.0,1.8978,0.0012,384.93,0.39,32.9,34.8,138.06,31.75,24.65,36.40,0.94,-15.64,-26.99,-47,560,-921,26.7,23.0,3.8,26.6,1.6,-28.7,5.73,2.35,-27.6,30.4
2012-08-04 01:31:00,0.0,1.8981,0.0012,384.93,0.46,42.5,35.7,138.06,31.75,24.65,36.39,0.91,-14.04,-26.97,-47,560,-921,26.7,23.2,3.9,26.6,1.6,-28.9,5.73,2.36,-27.7,30.5
2012-08-04 01:32:00,0.0,1.8979,0.0012,384.94,0.44,28.0,28.5,138.06,31.75,24.65,36.40,0.88,-12.53,-26.94,-47,560,-921,26.7,23.2,3.9,26.6,1.6,-29.1,5.73,2.38,-27.6,30.5
2012-08-04 01:33:00,0.0,1.8977,0.0012,385.04,0.40,31.4,30.4,138.06,31.75,24.65,36.39,0.86,-11.09,-26.91,-47,561,-921,26.7,23.2,4.0,26.6,1.6,-29.1,5.73,2.36,-27.6,30.5
2012-08-04 01:34:00,0.0,1.8975,0.0011,384.91,0.43,34.2,31.8,138.06,31.76,24.65,36.40,0.90,-9.72,-26.88,-47,560,-921,26.7,23.3,4.0,26.6,1.6,-29.3,5.73,2.35,-27.6,30.5
2012-08-04 01:35:00,0.0,1.8978,0.0013,385.07,0.48,41.5,34.2,138.06,31.76,24.65,36.39,0.90,-8.43,-26.85,-47,560,-921,26.7,23.3,4.0,26.6,1.5,-29.4,5.73,2.38,-27.6,30.5
2012-08-04 01:36:00,0.0,1.8984,0.0012,384.87,0.44,28.8,26.3,138.06,31.76,24.65,36.41,0.92,-7.19,-26.81,-47,560,-921,26.7,23.2,4.0,26.6,1.5,-29.5,5.73,2.36,-27.6,30.5
2012-08-04 01:37:00,0.0,1.8978,0.0012,384.83,0.37,30.5,29.6,138.06,31.76,24.65,36.40,0.94,-6.01,-26.79,-47,560,-921,26.7,23.2,3.9,26.6,1.5,-29.6,5.73,2.35,-27.6,30.5
2012-08-04 01:38:00,0.0,1.8971,0.0013,384.72,0.44,34.0,33.1,138.06,31.76,24.65,36.41,0.94,-4.90,-26.76,-47,560,-921,26.7,23.1,3.9,26.6,1.5,-29.7,5.73,2.37,-27.6,30.5
2012-08-04 01:39:00,0.0,1.8965,0.0012,384.88,0.45,24.9,31.6,138.06,31.76,24.66,36.40,0.94,-3.84,-26.73,-47,560,-921,26.7,23.0,3.8,26.6,1.5,-29.7,5.73,2.37,-27.6,30.5
2012-08-04 01:40:00,0.0,1.8974,0.0011,384.86,0.46,43.5,36.8,138.06,31.76,24.65,36.40,0.95,-2.84,-26.70,-46,561,-921,26.7,23.0,3.8,26.6,1.5,-29.8,5.73,2.34,-27.6,30.6
2012-08-04 01:41:00,0.0,1.8970,0.0013,384.85,0.45,34.1,28.7,138.06,31.76,24.65,36.40,0.95,-1.88,-26.68,-47,561,-921,26.7,23.1,3.9,26.6,1.5,-29.8,5.73,2.37,-27.6,30.5
2012-08-04 01:42:00,0.0,1.8969,0.0012,384.89,0.41,36.4,32.5,138.06,31.76,24.65,36.40,0.95,-0.98,-26.65,-47,560,-921,26.7,23.2,3.9,26.6,1.4,-30.0,5.73,2.36,-27.6,30.5
2012-08-04 01:43:00,0.0,1.8964,0.0012,384.76,0.46,44.3,34.5,138.06,31.76,24.65,36.40,0.92,-0.12,-26.62,-46,560,-921,26.7,23.1,3.9,26.6,1.4,-30.0,5.73,2.35,-27.6,30.6
2012-08-04 01:44:00,0.0,1.8969,0.0015,384.87,0.49,41.5,29.6,138.06,31.76,24.65,36.40,0.91,0.69,-26.59,-47,560,-921,26.7,23.1,3.9,26.6,1.4,-30.1,5.73,2.37,-27.6,30.6
2012-08-04 01:45:00,0.0,1.8966,0.0011,384.84,0.47,36.1,31.9,138.06,31.76,24.65,36.40,0.90,1.45,-26.57,-46,561,-921,26.7,23.1,3.9,26.6,1.4,-30.1,5.73,2.36,-27.6,30.6
2012-08-04 01:46:00,0.0,1.8970,0.0015,384.90,0.45,38.4,30.6,138.06,31.76,24.65,36.40,0.90,2.16,-26.54,-46,560,-921,26.7,23.2,3.9,26.6,1.4,-30.3,5.73,2.34,-27.6,30.6
2012-08-04 01:47:00,0.0,1.8962,0.0011,384.89,0.47,44.7,33.3,138.05,31.77,24.66,36.40,0.91,2.70,-26.52,-46,560,-921,26.7,23.1,3.9,26.6,1.4,-30.3,5.73,2.37,-27.6,30.6
2012-08-04 01:48:00,0.0,1.8965,0.0012,384.85,0.45,37.1,28.9,138.06,31.77,24.65,36.40,0.93,2.88,-26.50,-47,560,-921,26.7,22.9,3.8,26.6,1.4,-30.2,5.73,2.36,-27.5,30.6
2012-08-04 01:49:00,0.0,1.8965,0.0011,384.91,0.44,44.4,34.4,138.05,31.77,24.65,36.40,0.92,3.09,-26.47,-46,560,-921,26.7,23.0,3.8,26.6,1.4,-30.3,5.73,2.34,-27.6,30.6
2012-08-04 01:50:00,0.0,1.8969,0.0016,384.90,0.45,37.1,30.2,138.05,31.77,24.65,36.40,0.93,3.45,-26.44,-46,560,-921,26.7,23.1,3.9,26.6,1.4,-30.3,5.73,2.38,-27.5,30.5
2012-08-04 01:51:00,0.0,1.8966,0.0013,384.79,0.43,29.1,28.4,138.05,31.77,24.65,36.40,0.93,3.97,-26.43,-46,560,-920,26.7,23.1,3.9,26.6,1.4,-30.3,5.73,2.35,-27.5,30.6
2012-08-04 01:52:00,0.0,1.8956,0.0012,384.92,0.41,37.2,32.1,138.06,31.77,24.65,36.40,0.92,4.49,-26.41,-46,560,-921,26.7,23.0,3.8,26.6,1.4,-30.5,5.73,2.34,-27.5,30.6
2012-08-04 01:53:00,0.0,1.8958,0.0013,384.88,0.42,37.2,30.7,138.05,31.77,24.65,36.40,0.94,4.95,-26.39,-46,561,-921,26.7,22.8,3.7,26.6,1.4,-30.5,5.73,2.37,-27.5,30.6
2012-08-04 01:54:00,0.0,1.8962,0.0013,384.95,0.47,39.0,37.5,138.06,31.77,24.65,36.39,0.94,5.43,-26.37,-46,561,-921,26.7,22.7,3.6,26.6,1.4,-30.5,5.73,2.35,-27.5,30.6
2012-08-04 01:55:00,0.0,1.8964,0.0010,384.87,0.50,41.7,34.9,138.05,31.77,24.65,36.40,0.93,5.95,-26.35,-47,560,-921,26.7,22.7,3.6,26.6,1.4,-30.4,5.73,2.35,-27.5,30.6
2012-08-04 01:56:00,0.0,1.8969,0.0012,384.75,0.36,39.6,34.5,138.05,31.77,24.65,36.41,0.94,6.45,-26.34,-46,560,-921,26.7,22.8,3.7,26.6,1.4,-30.5,5.73,2.37,-27.5,30.6
2012-08-04 01:57:00,0.0,1.8969,0.0011,384.96,0.42,35.1,30.8,138.05,31.77,24.65,36.39,0.93,6.94,-26.32,-46,560,-921,26.7,22.8,3.7,26.6,1.4,-30.5,5.73,2.35,-27.5,30.6
2012-08-04 01:58:00,0.0,1.8966,0.0013,384.73,0.44,43.4,33.2,138.05,31.77,24.66,36.40,0.94,7.41,-26.30,-47,560,-921,26.7,22.9,3.8,26.6,1.4,-30.5,5.73,2.34,-27.5,30.6
2012-08-04 01:59:00,0.0,1.8971,0.0012,384.85,0.48,39.0,32.0,138.05,31.77,24.65,36.40,0.94,7.84,-26.28,-46,561,-921,26.7,22.9,3.8,26.6,1.4,-30.5,5.73,2.37,-27.5,30.7
2012-08-04 02:00:00,0.0,1.8974,0.0012,384.90,0.46,46.5,38.2,138.05,31.78,24.65,36.40,0.94,8.26,-26.27,-46,560,-921,26.7,22.9,3.8,26.6,1.4,-30.5,5.73,2.34,-27.5,30.7
2012-08-04 02:01:00,0.0,1.8972,0.0011,384.86,0.40,35.1,28.0,138.05,31.78,24.65,36.39,0.94,8.65,-26.25,-46,561,-920,26.7,23.0,3.8,26.6,1.4,-30.5,5.73,2.35,-27.5,30.6
2012-08-04 02:02:00,0.0,1.8967,0.0012,384.76,0.44,51.2,38.3,138.05,31.78,24.65,36.40,0.94,9.03,-26.24,-46,561,-920,26.7,23.0,3.8,26.6,1.4,-30.4,5.73,2.37,-27.5,30.7
2012-08-04 02:03:00,0.0,1.8975,0.0011,384.77,0.39,41.3,33.6,138.06,31.78,24.64,36.40,0.95,9.40,-26.23,-46,560,-921,26.7,23.0,3.8,26.6,1.4,-30.5,5.73,2.33,-27.5,30.7
2012-08-04 02:04:00,0.0,1.8971,0.0009,384.77,0.49,41.1,31.7,138.05,31.78,24.65,36.41,0.95,9.75,-26.21,-46,560,-921,26.7,23.0,3.8,26.6,1.4,-30.5,5.73,2.36,-27.5,30.7
2012-08-04 02:05:00,0.0,1.8974,0.0012,384.84,0.43,33.9,33.7,138.05,31.78,24.65,36.39,0.94,10.09,-26.20,-46,560,-921,26.7,23.0,3.8,26.6,1.4,-30.5,5.73,2.36,-27.5,30.7
2012-08-04 02:06:00,0.0,1.8975,0.0012,384.76,0.43,47.0,37.5,138.05,31.78,24.65,36.40,0.95,10.42,-26.19,-46,560,-921,26.7,23.2,3.9,26.6,1.4,-30.5,5.73,2.33,-27.5,30.6
2012-08-04 02:07:00,0.0,1.8982,0.0011,384.71,0.46,42.5,34.9,138.05,31.78,24.65,36.40,0.94,10.75,-26.18,-46,560,-920,26.7,23.2,4.0,26.6,1.4,-30.5,5.73,2.36,-27.5,30.7
2012-08-04 02:08:00,0.0,1.8981,0.0013,384.74,0.49,49.2,36.5,138.05,31.78,24.65,36.39,0.93,11.05,-26.16,-46,561,-921,26.7,23.2,3.9,26.6,1.4,-30.4,5.73,2.35,-27.5,30.7
2012-08-04 02:09:00,0.0,1.8978,0.0011,384.88,0.37,41.2,31.7,138.05,31.79,24.65,36.39,0.94,11.35,-26.15,-46,560,-921,26.7,23.1,3.9,26.6,1.4,-30.5,5.73,2.34,-27.5,30.6
2012-08-04 02:10:00,0.0,1.8979,0.0012,384.76,0.44,38.9,34.9,138.05,31.79,24.65,36.39,0.94,11.64,-26.14,-46,560,-920,26.7,23.1,3.9,26.6,1.4,-30.5,5.73,2.37,-27.5,30.6
2012-08-04 02:11:00,0.0,1.8970,0.0012,384.79,0.40,40.7,31.2,138.05,31.79,24.65,36.40,0.94,11.91,-26.13,-46,560,-920,26.7,23.0,3.8,26.6,1.4,-30.4,5.73,2.34,-27.5,30.6
2012-08-04 02:12:00,0.0,1.8971,0.0012,384.81,0.47,39.9,28.2,138.05,31.79,24.65,36.40,0.93,12.18,-26.12,-46,561,-921,26.7,23.0,3.8,26.6,1.4,-30.4,5.73,2.34,-27.5,30.6
2012-08-04 02:13:00,0.0,1.8986,0.0012,384.73,0.38,36.7,33.0,138.05,31.79,24.65,36.39,0.93,12.44,-26.11,-46,560,-921,26.7,23.1,3.9,26.6,1.4,-30.5,5.73,2.37,-27.5,30.7
2012-08-04 02:14:00,0.0,1.8989,0.0012,384.62,0.44,42.3,37.0,138.06,31.79,24.65,36.40,0.93,12.68,-26.10,-46,560,-921,26.7,23.3,4.0,26.6,1.4,-30.4,5.73,2.33,-27.5,30.7
2012-08-04 02:15:00,0.0,1.8989,0.0013,384.58,0.41,40.4,36.0,138.05,31.79,24.65,36.40,0.93,12.92,-26.09,-46,560,-921,26.7,23.3,4.0,26.6,1.4,-30.5,5.73,2.36,-27.5,30.6
2012-08-04 02:16:00,0.0,1.8984,0.0012,384.56,0.48,38.0,28.4,138.05,31.79,24.65,36.40,0.93,13.15,-26.09,-46,560,-921,26.7,23.3,4.0,26.6,1.4,-30.5,5.73,2.36,-27.5,30.6
2012-08-04 02:17:00,0.0,1.8994,0.0012,384.61,0.45,35.9,38.0,138.06,31.79,24.65,36.40,0.93,13.37,-26.08,-46,560,-921,26.7,23.2,4.0,26.6,1.4,-30.5,5.73,2.33,-27.5,30.6
2012-08-04 02:18:00,0.0,1.8991,0.0013,384.59,0.43,45.1,34.4,138.05,31.79,24.65,36.41,0.93,13.58,-26.07,-46,560,-921,26.7,23.3,4.0,26.6,1.4,-30.5,5.73,2.37,-27.5,30.6
2012-08-04 02:19:00,0.0,1.8989,0.0013,384.60,0.46,43.9,31.2,138.05,31.80,24.65,36.40,0.94,13.78,-26.06,-46,560,-921,26.7,23.3,4.0,26.6,1.4,-30.5,5.73,2.34,-27.5,30.6
2012-08-04 02:20:00,0.0,1.8994,0.0012,384.72,0.47,42.7,34.8,138.05,31.80,24.65,36.39,0.93,13.98,-26.06,-46,560,-921,26.7,23.2,4.0,26.6,1.4,-30.5,5.73,2.34,-27.5,30.6